#timestamp,LO_Frequency,Hit,StdDev 
1513749615.8,286047002.4,N
1513749635.6,286047000.6,N
1513749655.5,286047000.9,N
1513749675.3,286046996.5,N
1513749695.1,286046997.4,N
1513749715.9,286046997.1,N
1513749735.7,286046998.5,N
1513749755.5,286047001.0,N
1513749775.3,286046999.8,N
1513749795.2,286047000.6,N
1513749815.0,286046998.0,N
1513749815.9,286046998.0,N
1513749835.7,286046997.1,N
1513749855.6,286046998.4,N
1513749875.4,286046996.0,N
1513749895.2,286046996.2,N
1513749915.1,286046994.9,N
1513749916.0,286046994.9,N
1513749935.8,286046995.4,N
1513749955.6,286046997.0,N
1513749975.5,286046998.2,N
1513749995.3,286046999.9,N
1513750015.1,286047001.0,N
1513750035.9,286046999.6,N
1513750055.7,286047000.4,N
1513750075.5,286047000.7,N
1513750095.3,286047002.8,N
1513750115.2,286047002.5,N
1513750135.0,286047002.6,N
1513750135.9,286047002.6,N
1513750155.7,286046998.1,N
1513750175.6,286047002.0,N
1513750195.4,286047005.7,N
1513750215.2,286047001.6,N
1513750235.1,286047003.6,N
1513750236.0,286047003.6,N
1513750255.8,286047005.6,N
1513750275.6,286047010.7,Y
1513750295.5,286047009.2,P
1513750315.3,286047005.2,N
1513750335.1,286047006.3,N
1513750355.9,286047004.7,N
1513750375.7,286047003.7,N
1513750395.5,286047003.4,N
1513750415.4,286047006.4,N
1513750435.2,286047008.2,Y
1513750455.0,286047006.5,P
1513750455.9,286047006.5,P
1513750475.8,286047009.9,P
1513750495.6,286047012.3,Y
1513750515.4,286047004.5,P
1513750535.3,286047008.0,P
1513750555.1,286047008.8,P
1513750575.8,286047011.8,Y
1513750595.7,286047007.5,P
1513750615.5,286047004.7,P
1513750635.3,286047008.7,P
1513750655.2,286047006.9,Y
1513750675.0,286047001.9,P
1513750675.9,286047001.9,N
1513750695.7,286047004.0,N
1513750715.6,286047002.9,N
1513750735.4,286047004.5,N
1513750755.2,286047009.2,Y
1513750775.1,286047002.9,P
1513750776.0,286047002.9,P
1513750795.8,286047002.9,P
1513750815.6,286047002.5,Y
1513750835.5,286046998.1,P
1513750855.3,286047001.2,N
1513750875.1,286047002.7,N
1513750895.9,286047007.0,Y
1513750915.7,286047005.8,P
1513750935.5,286047005.0,N
1513750955.4,286047006.1,P
1513750975.2,286047007.7,Y
1513750995.0,286047004.3,P
1513750995.9,286047004.3,P
1513751015.8,286047002.0,P
1513751035.6,286047001.3,N
1513751055.4,286047001.9,N
1513751075.3,286047005.0,Y
1513751095.1,286047002.0,P
1513751115.8,286047000.3,N
1513751135.7,286047003.5,P
1513751155.5,286047004.0,Y
1513751175.3,286046999.9,P
1513751195.2,286046999.1,N
1513751215.9,286047001.2,N
1513751235.7,286046998.3,N
1513751255.6,286046998.5,N
1513751275.4,286046996.8,N
1513751295.2,286046999.4,N
1513751315.1,286047000.8,N
1513751316.0,286047000.8,N
1513751335.8,286046998.0,N
1513751355.6,286046995.4,Y
1513751375.5,286046997.8,P
1513751395.3,286046993.9,P
1513751415.1,286046996.3,N
1513751435.9,286046993.2,Y
1513751455.7,286046992.1,P
1513751475.5,286046989.0,P
1513751495.4,286046990.1,P
1513751515.2,286046988.9,Y
1513751535.0,286046997.6,P
1513751535.9,286046997.6,N
1513751555.8,286046991.7,P
1513751575.6,286046990.2,Y
1513751595.4,286046997.4,P
1513751615.3,286046998.2,N
1513751635.1,286046997.6,N
1513751636.0,286046997.6,N
1513751655.8,286046994.6,Y
1513751675.7,286046993.7,P
1513751695.5,286046992.4,P
1513751715.3,286046994.6,N
1513751735.2,286046994.3,Y
1513751755.9,286047001.7,P
1513751775.7,286047000.2,N
1513751795.6,286047002.4,N
1513751815.4,286047001.9,N
1513751835.2,286047004.1,N
1513751855.1,286047005.7,N
1513751856.0,286047005.7,N
1513751875.8,286046999.8,N
1513751895.6,286047000.1,N
1513751915.5,286046999.8,N
1513751935.3,286047001.9,N
1513751955.1,286047001.2,N
1513751975.8,286047002.7,N
1513751995.7,286047000.6,N
1513752015.5,286046998.2,N
1513752035.3,286047003.1,N
1513752055.2,286047000.8,N
1513752075.9,286046999.8,N
1513752095.7,286047004.3,N
1513752115.6,286047001.2,N
1513752135.4,286047000.9,N
1513752155.2,286046999.3,N
1513752175.1,286047002.5,N
1513752176.0,286047002.5,N
1513752195.8,286047003.4,N
1513752215.6,286047006.9,N
1513752235.5,286047005.1,N
1513752255.3,286047009.2,Y
1513752275.1,286047006.7,P
1513752295.9,286047002.9,N
1513752315.7,286047005.5,N
1513752335.5,286047003.5,N
1513752355.3,286046999.7,N
1513752375.2,286047000.3,N
1513752395.0,286047002.0,N
1513752395.9,286047002.0,N
1513752415.7,286047005.3,N
1513752435.6,286047007.7,Y
1513752455.4,286047007.1,P
1513752475.2,286047002.1,N
1513752495.1,286046998.2,N
1513752496.0,286046998.2,N
1513752515.8,286046999.0,N
1513752535.6,286047000.2,N
1513752555.5,286047005.9,N
1513752575.3,286047005.5,N
1513752595.1,286047006.1,N
1513752615.9,286047008.4,N
1513752635.7,286047010.1,N
1513752655.5,286047009.3,N
1513752675.4,286047011.5,N
1513752695.2,286047011.9,N
1513752715.0,286047011.4,N
1513752715.9,286047011.4,N
1513752735.8,286047016.5,Y
1513752755.6,286047013.1,P
1513752775.4,286047014.5,P
1513752795.2,286047021.0,P
1513752815.1,286047022.1,Y
1513752816.0,286047022.1,P
1513752835.8,286047011.6,N
1513752855.7,286047009.7,N
1513752875.5,286047014.7,Y
1513752895.3,286047007.5,P
1513752915.2,286047007.1,N
1513752935.9,286047006.5,N
1513752955.7,286047006.4,N
1513752975.6,286047006.9,N
1513752995.4,286047005.0,N
1513753015.2,286047003.2,N
1513753035.0,286047007.5,N
1513753035.9,286047007.5,N
1513753055.8,286047005.8,N
1513753075.6,286047007.9,Y
1513753095.5,286046998.4,P
1513753115.3,286046997.0,N
1513753135.1,286046998.1,N
1513753155.8,286046999.0,N
1513753175.7,286046998.4,N
1513753195.5,286046998.8,N
